Location: *
(37.5724°S, 58.0067°E)
Time: 11:46:37
(UTC+00:00)

USA 229 DEB - Pass Details

Date: 30 November 2021
Orbit: 943 x 1269 km, 63.4° (Epoch: 14 January)

Event Time Altitude Azimuth Distance (km) Brightness Sun altitude
Rises 19:58:30 0° 273° (W) 4,184 6.8 -30.7°
Reaches altitude 10° 20:02:31 10° 255° (WSW) 3,180 6.3 -30.6°
Maximum altitude 20:07:24 18° 215° (SW) 2,574 6.2 -30.6°
Drops below altitude 10° 20:12:08 10° 174° (S) 3,048 7.0 -30.5°
Sets 20:15:54 0° 155° (SSE) 3,944 7.7 -30.5°
